Weather History for Abbeville, LA

Change the Weather History Date:

Monday, January 21, 2013

  Actual Average (KARA) Record (KARA)
Temperature  
Mean Temperature 56 °F 53 °F  
Max Temperature 69 °F 63 °F 80 °F (2012)
Min Temperature 42 °F 43 °F 17 °F (1985)
Degree Days  
Heating Degree Days 10 13  
Month to date heating degree days 273  
Since 1 July heating degree days 820  
Cooling Degree Days 0 0  
Month to date cooling degree days 9  
Year to date cooling degree days 9  
Growing Degree Days 6 (Base 50)    
Moisture  
Dew Point 48 °F    
Average Humidity 80    
Maximum Humidity 100    
Minimum Humidity 44    
Precipitation  
Precipitation 0.00 in 0.16 in 2.02 in (1987)
Month to date precipitation 3.49  
Year to date precipitation 3.49  
Sea Level Pressure  
Sea Level Pressure 30.19 in    
Wind  
Wind Speed 2 mph (NNE)    
Max Wind Speed 8 mph    
Max Gust Speed -    
Visibility 6 miles    
Events Fog    
T = Trace of Precipitation, MM = Missing Value Source: NWS Daily Summary

Daily Weather History Graph

Daily Weather History Graph

Search for Another Location

Airport:

Trip Planner

Search our weather history database for the weather conditions in past years. The results will help you decide how hot, cold, wet, or windy it might be!

Date:

Astronomy

Jan. 21, 2013 Rise Set
Actual Time 7:03 AM CST 5:36 PM CST
Civil Twilight 6:37 AM CST 6:01 PM CST
Nautical Twilight 6:08 AM CST 6:30 PM CST
Astronomical Twilight 5:40 AM CST 6:59 PM CST
Moon 1:18 PM CST (1/21) 2:31 AM CST (1/21)
Length of Visible Light 11h 24m
Length of Day
10h 32m
Waxing Gibbous, 75% of the Moon is Illuminated
Jan 21
Waxing Gibbous
Jan 26
Full
Feb 3
Last Quarter
Feb 10
New
Feb 17
First Quarter

Hourly Weather History & Observations

Time (CST) Temp. Dew Point Humidity Pressure Visibility Wind Dir Wind Speed Gust Speed Precip Events Conditions
12:15 AM 45.9 °F 45.9 °F 100% 30.16 in 7.0 mi Calm Calm - N/A   Clear
12:35 AM 44.8 °F 44.8 °F 100% 30.16 in 7.0 mi Calm Calm - N/A   Clear
12:55 AM 45.9 °F 45.9 °F 100% 30.16 in 4.0 mi Calm Calm - N/A   Clear
1:15 AM 46.0 °F 46.0 °F 100% 30.16 in 10.0 mi Calm Calm - N/A   Clear
1:35 AM 46.4 °F 46.4 °F 100% 30.15 in 10.0 mi Calm Calm - N/A   Clear
1:55 AM 45.7 °F 45.7 °F 100% 30.16 in 5.0 mi Calm Calm - N/A   Clear
2:15 AM 45.7 °F 45.7 °F 100% 30.16 in 5.0 mi Calm Calm - N/A   Clear
2:35 AM 45.9 °F 45.9 °F 100% 30.16 in 0.8 mi Calm Calm - N/A   Mist
2:55 AM 45.5 °F 45.5 °F 100% 30.17 in 0.8 mi Calm Calm - N/A   Mist
3:15 AM 45.5 °F 45.5 °F 100% 30.17 in 0.8 mi Calm Calm - N/A   Mist
3:35 AM 45.0 °F 45.0 °F 100% 30.17 in 5.0 mi Calm Calm - N/A   Clear
3:55 AM 45.3 °F 45.3 °F 100% 30.16 in 0.8 mi Calm Calm - N/A   Mist
4:15 AM 45.0 °F 45.0 °F 100% 30.16 in 0.5 mi Calm Calm - N/A Fog Fog
4:35 AM 44.6 °F 44.6 °F 100% 30.16 in 0.5 mi Calm Calm - N/A Fog Fog
4:55 AM 43.9 °F 43.9 °F 100% 30.16 in 0.5 mi Calm Calm - N/A Fog Fog
5:15 AM 44.1 °F 44.1 °F 100% 30.16 in 0.5 mi Calm Calm - N/A Fog Fog
5:35 AM 42.8 °F 42.8 °F 100% 30.16 in 0.5 mi North - - N/A Fog Fog
5:55 AM 42.6 °F 42.6 °F 100% 30.16 in 0.5 mi Calm Calm - N/A Fog Fog
6:15 AM 43.5 °F 43.5 °F 100% 30.18 in 0.2 mi Calm Calm - N/A Fog Fog
6:35 AM 44.2 °F 44.2 °F 100% 30.18 in 0.5 mi North - - N/A Fog Fog
6:55 AM 45.7 °F 45.7 °F 100% 30.19 in 0.5 mi Calm Calm - N/A Fog Fog
7:15 AM 43.9 °F 43.9 °F 100% 30.20 in 0.2 mi Calm Calm - N/A Fog Fog
7:35 AM 45.0 °F 45.0 °F 100% 30.21 in 0.2 mi Calm Calm - N/A Fog Fog
7:55 AM 45.5 °F 45.5 °F 100% 30.21 in 0.2 mi Calm Calm - N/A Fog Fog
8:15 AM 48.4 °F 48.4 °F 100% 30.22 in 0.2 mi Calm Calm - N/A Fog Fog
8:35 AM 50.7 °F 50.7 °F 100% 30.23 in 10.0 mi North 3.5 mph - N/A   Clear
8:55 AM 52.3 °F 52.3 °F 100% 30.24 in 10.0 mi NNE 4.6 mph - N/A   Clear
9:15 AM 53.4 °F 53.4 °F 100% 30.24 in 10.0 mi NNE 4.6 mph - N/A   Clear
9:35 AM 55.2 °F 54.5 °F 97% 30.24 in 10.0 mi North 3.5 mph - N/A   Clear
9:55 AM 58.6 °F 53.1 °F 82% 30.24 in 10.0 mi North 3.5 mph - N/A   Clear
10:15 AM 61.2 °F 52.7 °F 74% 30.24 in 10.0 mi North 3.5 mph - N/A   Clear
10:35 AM 63.5 °F 51.6 °F 65% 30.24 in 10.0 mi North 4.6 mph - N/A   Clear
10:55 AM 65.1 °F 50.4 °F 59% 30.24 in 10.0 mi North 5.8 mph - N/A   Clear
11:15 AM 66.7 °F 50.5 °F 56% 30.23 in 10.0 mi North 6.9 mph - N/A   Clear
11:55 AM 68.0 °F 49.6 °F 52% 30.22 in 10.0 mi NNE 5.8 mph - N/A   Clear
12:15 PM 68.2 °F 48.9 °F 50% 30.21 in 5.0 mi NE 5.8 mph - N/A   Haze
12:35 PM 69.1 °F 48.2 °F 47% 30.20 in 10.0 mi NE 6.9 mph - N/A   Clear
12:55 PM 68.7 °F 47.8 °F 47% 30.19 in 10.0 mi NNE 6.9 mph - N/A   Clear
1:15 PM 68.9 °F 46.6 °F 45% 30.18 in 10.0 mi ENE 4.6 mph - N/A   Clear
1:35 PM 69.1 °F 46.6 °F 45% 30.18 in 10.0 mi NE 4.6 mph - N/A   Clear
1:55 PM 69.3 °F 47.3 °F 45% 30.17 in 10.0 mi North 5.8 mph - N/A   Clear
2:15 PM 69.1 °F 46.2 °F 44% 30.18 in 10.0 mi NNE 5.8 mph - N/A   Clear
2:35 PM 69.1 °F 46.6 °F 45% 30.18 in 10.0 mi North 5.8 mph - N/A   Clear
2:55 PM 68.7 °F 46.6 °F 45% 30.18 in 10.0 mi NNE 6.9 mph - N/A   Clear
3:15 PM 68.9 °F 47.3 °F 46% 30.18 in 10.0 mi North 5.8 mph - N/A   Clear
3:35 PM 68.4 °F 46.4 °F 45% 30.18 in 10.0 mi North 8.1 mph - N/A   Clear
3:55 PM 68.0 °F 46.2 °F 46% 30.18 in 10.0 mi North 4.6 mph - N/A   Scattered Clouds
4:15 PM 67.1 °F 46.2 °F 47% 30.18 in 10.0 mi North 6.9 mph - N/A   Clear
4:35 PM 66.2 °F 46.4 °F 49% 30.18 in 10.0 mi North 4.6 mph - N/A   Clear
4:55 PM 65.1 °F 48.9 °F 56% 30.18 in 0.2 mi Calm Calm - N/A   Haze
5:15 PM 63.5 °F 47.8 °F 57% 30.19 in 0.2 mi Calm Calm - N/A   Haze
5:35 PM 60.6 °F 49.3 °F 66% 30.19 in 0.5 mi Calm Calm - N/A   Haze
5:55 PM 59.4 °F 49.5 °F 70% 30.20 in 2.0 mi North 3.5 mph - N/A   Haze
6:15 PM 58.1 °F 48.0 °F 69% 30.20 in 10.0 mi Calm Calm - N/A   Clear
6:35 PM 57.2 °F 48.4 °F 72% 30.20 in 4.0 mi North 3.5 mph - N/A   Haze
6:55 PM 55.6 °F 48.9 °F 78% 30.20 in 0.5 mi North 3.5 mph - N/A   Haze
7:15 PM 56.5 °F 49.3 °F 77% 30.20 in 2.0 mi NNE 4.6 mph - N/A   Haze
7:35 PM 56.1 °F 50.0 °F 80% 30.20 in 7.0 mi Calm Calm - N/A   Clear
7:55 PM 57.7 °F 48.6 °F 71% 30.20 in 10.0 mi North 5.8 mph - N/A   Clear
8:15 PM 58.5 °F 50.0 °F 73% 30.21 in 10.0 mi NNE 3.5 mph - N/A   Clear
8:35 PM 57.4 °F 50.0 °F 76% 30.21 in 7.0 mi NNE 3.5 mph - N/A   Clear
8:55 PM 54.5 °F 49.1 °F 82% 30.21 in 10.0 mi Calm Calm - N/A   Clear
9:15 PM 53.4 °F 49.1 °F 85% 30.22 in 10.0 mi Calm Calm - N/A   Clear
9:35 PM 51.8 °F 48.7 °F 89% 30.22 in 10.0 mi Calm Calm - N/A   Clear
9:55 PM 52.5 °F 49.1 °F 88% 30.22 in 10.0 mi Calm Calm - N/A   Clear
10:15 PM 51.6 °F 49.5 °F 92% 30.22 in 10.0 mi Calm Calm - N/A   Clear
10:35 PM 52.5 °F 49.6 °F 90% 30.21 in 4.0 mi ENE 3.5 mph - N/A   Clear
10:55 PM 52.2 °F 50.0 °F 92% 30.21 in 5.0 mi NE 3.5 mph - N/A   Clear
11:15 PM 51.8 °F 50.0 °F 94% 30.21 in 10.0 mi NNE 3.5 mph - N/A   Clear
11:35 PM 51.3 °F 49.1 °F 92% 30.22 in 10.0 mi Calm Calm - N/A   Clear
11:55 PM 48.7 °F 48.4 °F 99% 30.22 in 10.0 mi North 3.5 mph - N/A   Clear